Temp
61 61 61 61 61 62 62 62 62 62 62 63 63 63 63 63 65 67 58 62 65 66 65 68 72 70 71 65 65 64 62 53 49 51 53 58 57 58 59 58 56 56 55 57 60
61 61 61 61 61 61 61 61 62 62 62 62 63 62 63 63 65 62 65 66 66 65 68 67 65 67 64 62 63 63 58 50 54 55 54 56 55 55 56 55 54 55 59 60 60
60 60 60 60 61 61 61 61 61 62 62 62 63 62 62 64 63 60 66 66 66 65 67 66 65 64 59 61 57 56 54 54 54 56 56 54 54 55 53 51 52 51 54 56 56
60 60 60 60 60 61 61 61 61 61 62 62 63 62 62 65 56 63 64 64 65 66 66 65 64 60 56 54 56 52 54 55 54 54 55 53 55 52 52 52 53 54 54 54 54
59 59 59 59 60 60 61 61 61 61 62 62 63 63 65 61 56 67 62 63 67 65 61 62 60 59 55 56 57 54 53 54 54 54 54 54 51 51 51 53 54 53 53 53 53
59 59 59 59 60 60 60 61 61 61 62 62 63 63 64 54 65 66 62 64 64 66 61 63 61 62 56 53 54 54 54 53 54 53 53 51 52 51 52 53 53 52 52 53 52
59 58 58 59 60 60 60 60 61 61 62 63 63 64 60 55 65 66 63 62 62 64 60 59 62 62 59 53 54 54 49 51 52 53 50 52 48 49 53 52 52 53 52 52 52
58 58 58 58 59 59 60 60 60 61 62 63 63 65 54 64 66 63 65 64 65 64 62 61 64 58 56 55 54 49 49 48 49 51 50 52 47 51 53 52 52 53 53 52 53
58 57 58 58 58 59 59 60 60 62 63 63 64 63 53 64 60 61 62 60 61 63 62 62 61 54 54 51 50 49 47 44 46 48 48 49 48 51 53 51 52 53 53 53 53
58 57 58 58 58 58 59 61 61 62 63 64 62 60 58 53 57 58 62 60 58 59 59 57 56 53 51 51 43 42 44 43 43 47 47 46 48 53 54 51 53 54 54 53 53
58 58 58 58 58 59 59 62 60 58 56 49 50 52 53 58 58 58 57 59 59 56 50 50 52 46 44 43 43 43 41 42 45 45 44 46 47 52 53 51 52 53 54 53 53
58 58 58 58 58 58 58 59 57 58 50 53 53 53 55 55 54 56 60 55 53 48 47 49 44 44 45 44 43 43 41 43 44 43 43 46 46 49 50 50 52 53 54 53 53
58 57 57 58 58 58 55 54 55 55 54 51 53 52 52 55 49 51 56 51 48 45 44 46 43 45 44 43 42 41 39 39 37 43 43 44 48 49 50 49 51 53 53 53 52
58 57 57 57 56 56 54 54 55 54 46 48 51 53 54 53 49 54 53 52 47 44 43 42 43 43 43 40 41 38 41 39 38 40 41 44 43 48 48 51 50 52 53 53 52
57 57 57 57 56 55 54 55 55 55 35 48 50 58 53 52 50 51 53 53 45 42 44 38 40 41 41 40 41 39 40 39 38 39 38 40 41 50 46 49 51 52 51 53 52
57 56 56 56 55 53 54 55 56 40 36 40 49 48 49 49 48 51 51 53 49 45 44 40 43 42 41 41 41 41 39 38 37 37 34 34 37 48 49 48 50 52 53 51 52
56 55 55 55 54 53 54 57 36 36 42 41 44 47 46 44 45 46 44 44 42 36 34 39 39 41 41 41 41 40 36 32 32 33 35 34 34 47 51 51 50 50 52 52 52
56 55 52 53 54 54 54 48 36 36 37 43 45 46 45 44 44 44 43 43 39 37 34 37 35 38 40 39 40 37 36 32 32 35 37 33 35 49 50 51 51 50 51 50 51
55 52 51 51 52 53 53 34 37 39 44 44 44 42 42 43 44 43 43 42 41 39 36 35 34 39 39 40 40 35 34 36 26 20 29 37 44 50 49 51 49 50 49 51 50
53 51 50 51 51 53 40 38 38 47 46 48 42 44 38 43 43 42 42 43 40 39 39 35 34 33 38 39 39 38 39 32 32 32 33 35 34 45 48 50 51 50 50 50 50
52 47 47 51 50 49 34 36 42 47 47 44 38 40 46 45 44 43 43 41 41 37 39 33 36 31 35 33 36 35 34 34 34 30 33 31 45 48 50 51 50 52 49 50 49
49 35 48 49 38 32 34 39 45 44 46 46 47 46 48 44 42 42 42 44 44 41 39 38 36 33 32 33 36 36 36 36 33 29 27 28 39 47 49 49 46 47 48 48 47
42 41 48 46 33 32 35 42 45 42 44 44 43 47 47 43 39 43 42 40 41 41 40 39 35 33 31 31 34 32 36 36 33 32 27 31 44 42 44 43 46 44 45 44 44
41 33 39 43 38 39 34 36 38 44 44 46 44 46 43 39 41 40 40 39 40 41 42 42 32 34 40 38 37 30 31 36 34 31 31 33 35 39 36 37 40 38 37 37 38
40 34 35 32 32 38 43 41 38 35 42 44 41 45 43 34 34 35 39 37 38 41 39 40 33 28 31 33 34 34 32 31 27 36 35 34 28 38 37 37 36 38 40 36 35
36 35 37 34 39 40 40 37 42 40 41 40 41 43 46 42 43 36 37 36 39 38 38 38 33 28 29 26 28 27 32 31 31 31 27 30 30 46 46 43 35 36 37 38 40
43 43 45 38 37 39 40 41 43 45 42 44 45 43 41 45 43 39 39 40 43 38 36 34 30 29 33 24 25 29 28 32 32 34 36 30 40 44 40 42 44 45 44 41 47
MSLP
1023.15 1023.06 1022.57 1022.49 1022.36 1022.17 1021.89 1021.89 1021.91 1021.37 1020.95 1020.56 1020.03 1020.04 1020.07 1019.74 1019.25 1018.85 1019.60 1020.80 1020.20 1019.56 1019.24 1018.50 1018.10 1018.04 1017.91 1018.24 1018.74 1018.61 1018.04 1019.01 1020.06 1020.46 1021.13 1021.79 1021.76 1022.35 1022.78 1022.39 1022.90 1023.42 1023.66 1023.88 1023.45
1023.09 1022.98 1022.66 1022.46 1022.39 1022.23 1021.95 1021.82 1021.62 1021.58 1021.08 1020.60 1020.21 1019.96 1019.90 1019.83 1019.46 1019.41 1020.84 1020.31 1019.79 1019.34 1018.89 1018.42 1018.34 1018.25 1018.52 1019.05 1019.32 1018.88 1019.08 1020.52 1021.45 1021.60 1021.64 1022.07 1022.33 1022.85 1022.85 1022.74 1023.07 1023.42 1023.61 1023.79 1023.53
1023.13 1022.93 1022.74 1022.36 1022.00 1022.26 1022.00 1021.86 1021.77 1021.49 1021.05 1020.64 1020.14 1019.85 1019.61 1019.82 1019.77 1020.51 1020.51 1020.12 1019.55 1019.29 1019.13 1018.92 1018.92 1018.81 1019.02 1019.80 1020.46 1020.39 1020.62 1021.58 1022.09 1022.28 1022.45 1022.54 1022.72 1023.24 1023.31 1023.32 1023.84 1024.08 1024.19 1024.29 1024.03
1023.20 1022.93 1022.64 1022.40 1022.10 1022.09 1022.07 1021.80 1021.40 1021.47 1021.13 1020.74 1020.25 1019.68 1019.55 1019.50 1021.27 1021.24 1020.85 1020.27 1019.64 1019.04 1019.16 1019.18 1019.06 1019.07 1019.84 1020.53 1021.22 1021.24 1022.17 1022.25 1022.66 1023.00 1022.91 1022.96 1023.24 1023.35 1023.59 1023.93 1024.46 1024.57 1024.79 1024.57 1024.39
1023.08 1023.12 1023.15 1022.07 1022.25 1021.65 1022.06 1021.85 1021.61 1021.10 1021.04 1020.75 1020.18 1019.87 1019.62 1019.93 1021.51 1021.32 1021.24 1020.42 1019.53 1019.43 1019.49 1019.48 1019.49 1019.71 1020.31 1021.22 1021.54 1021.74 1022.59 1022.86 1023.18 1023.33 1023.43 1023.50 1023.37 1023.42 1023.76 1024.29 1024.75 1025.02 1025.03 1024.80 1024.55
1023.16 1023.21 1022.92 1022.66 1022.19 1021.86 1021.68 1021.82 1021.48 1021.17 1020.94 1020.73 1020.21 1019.83 1019.87 1020.76 1021.79 1021.65 1021.29 1020.74 1020.32 1019.54 1019.83 1020.02 1020.09 1020.28 1020.97 1021.91 1022.11 1022.75 1022.99 1023.14 1023.28 1023.37 1023.54 1023.37 1023.23 1023.59 1023.96 1024.42 1024.61 1024.83 1024.75 1024.59 1024.64
1023.19 1022.84 1022.93 1022.61 1022.52 1021.78 1021.47 1021.30 1021.30 1021.15 1021.02 1020.72 1020.38 1020.05 1020.70 1022.18 1021.97 1021.83 1021.34 1021.34 1021.09 1020.44 1020.22 1020.82 1020.64 1020.62 1021.66 1022.46 1023.19 1023.22 1023.15 1023.16 1023.30 1023.43 1023.50 1023.39 1022.92 1022.99 1023.69 1024.12 1024.15 1024.29 1024.44 1024.40 1024.39
1022.78 1023.07 1022.75 1022.61 1022.18 1022.09 1021.55 1020.91 1021.15 1021.14 1020.97 1020.71 1020.45 1020.22 1021.62 1022.10 1021.89 1021.80 1021.54 1021.50 1021.29 1020.97 1021.15 1021.38 1021.09 1021.36 1022.38 1023.18 1023.22 1023.17 1023.27 1022.72 1023.34 1023.44 1023.49 1023.08 1022.24 1022.69 1023.21 1023.53 1023.55 1023.69 1023.81 1023.94 1023.85
1022.63 1022.75 1022.83 1022.50 1022.05 1021.90 1021.69 1020.84 1020.98 1021.12 1020.83 1020.74 1020.59 1020.49 1021.95 1022.07 1022.06 1022.18 1022.11 1021.88 1021.66 1021.46 1021.51 1021.64 1021.39 1022.46 1023.12 1022.95 1023.07 1023.13 1022.78 1022.77 1023.03 1023.62 1023.43 1023.02 1021.94 1022.38 1022.97 1023.21 1023.07 1023.18 1023.31 1023.53 1023.62
1022.73 1022.71 1022.61 1022.22 1021.97 1021.74 1021.62 1020.85 1021.04 1021.06 1021.01 1020.77 1021.08 1021.27 1022.44 1022.71 1022.43 1022.46 1022.23 1022.22 1021.90 1021.72 1021.69 1021.79 1022.03 1022.71 1023.46 1023.41 1023.74 1023.75 1023.42 1023.15 1023.14 1023.63 1023.47 1022.89 1022.12 1021.92 1022.28 1022.67 1022.56 1022.75 1022.82 1023.07 1023.23
1022.59 1022.66 1022.29 1022.10 1021.88 1021.79 1021.50 1021.01 1021.66 1021.87 1022.29 1022.72 1022.86 1022.72 1023.15 1023.19 1022.77 1022.61 1022.70 1022.36 1022.26 1022.22 1022.56 1022.93 1022.62 1023.64 1024.70 1025.10 1025.23 1024.94 1024.66 1024.03 1023.85 1024.39 1023.72 1022.63 1021.91 1021.21 1021.44 1021.87 1021.98 1022.23 1022.36 1022.55 1022.85
1022.38 1022.80 1022.03 1021.99 1021.94 1021.68 1021.70 1021.55 1021.98 1022.47 1023.07 1023.35 1023.13 1023.07 1023.42 1023.63 1022.98 1022.70 1022.50 1022.90 1022.85 1023.18 1023.55 1023.76 1024.08 1025.21 1025.57 1025.68 1025.70 1025.54 1025.34 1024.75 1024.54 1024.51 1023.75 1022.38 1021.31 1020.87 1021.01 1021.33 1021.63 1021.82 1021.93 1022.18 1022.55
1022.20 1022.46 1022.08 1021.95 1021.90 1021.46 1022.31 1022.49 1022.50 1022.46 1022.63 1023.49 1023.49 1023.35 1023.62 1023.61 1023.76 1023.46 1023.20 1023.58 1023.78 1024.03 1024.26 1024.40 1025.69 1026.02 1025.84 1026.12 1026.07 1026.10 1026.23 1026.00 1025.65 1024.42 1023.78 1022.42 1020.78 1020.41 1020.72 1021.25 1021.37 1021.53 1021.80 1022.10 1022.40
1022.01 1022.24 1022.10 1021.97 1022.43 1021.72 1022.30 1022.96 1022.84 1022.68 1022.99 1023.78 1023.59 1023.63 1023.74 1023.53 1023.99 1024.14 1024.07 1024.07 1024.44 1024.97 1025.27 1025.91 1026.53 1026.50 1026.23 1026.48 1026.72 1026.65 1026.98 1026.64 1025.78 1024.61 1023.39 1022.94 1020.98 1020.17 1020.21 1020.10 1020.66 1020.93 1021.26 1021.72 1022.23
1021.88 1021.98 1021.93 1021.91 1021.98 1021.97 1022.49 1022.65 1022.90 1022.52 1023.46 1024.25 1023.80 1023.78 1023.70 1023.79 1024.31 1024.38 1024.54 1023.95 1024.71 1025.40 1025.93 1026.93 1026.97 1026.95 1026.53 1026.82 1027.02 1027.29 1027.28 1026.78 1026.05 1024.82 1023.90 1022.84 1021.61 1019.78 1019.96 1019.40 1019.75 1020.34 1020.95 1021.38 1022.05
1021.50 1021.89 1021.83 1022.03 1021.94 1022.76 1022.56 1022.42 1022.66 1022.74 1023.05 1023.74 1023.82 1023.74 1023.97 1023.83 1024.00 1024.30 1024.34 1024.50 1025.36 1025.51 1026.16 1027.14 1027.55 1027.60 1027.29 1027.44 1027.38 1027.55 1027.21 1026.71 1026.14 1024.83 1023.89 1023.57 1022.45 1019.51 1019.35 1019.56 1019.63 1020.10 1020.57 1021.21 1021.70
1021.48 1021.85 1021.87 1021.98 1022.13 1022.54 1022.68 1022.20 1022.93 1022.90 1023.29 1023.48 1023.68 1023.75 1023.96 1024.09 1024.10 1024.23 1024.56 1024.95 1025.50 1026.13 1026.67 1027.44 1027.71 1027.93 1027.96 1027.51 1027.63 1027.37 1027.04 1026.39 1025.92 1024.61 1024.06 1023.81 1022.50 1019.36 1019.19 1019.67 1020.01 1020.11 1020.53 1021.07 1021.65
1021.52 1021.86 1021.98 1022.30 1022.27 1022.24 1022.22 1022.46 1022.81 1022.22 1022.33 1022.84 1023.16 1023.79 1023.97 1024.20 1024.25 1024.33 1024.54 1025.17 1025.88 1026.16 1027.07 1027.33 1027.85 1028.07 1028.28 1028.14 1027.53 1027.56 1027.45 1026.94 1026.26 1025.54 1024.18 1023.51 1021.40 1019.09 1019.28 1019.86 1020.22 1020.50 1020.46 1020.75 1021.10
1021.50 1021.97 1021.86 1022.61 1022.38 1022.31 1021.91 1022.78 1022.12 1021.54 1021.17 1021.82 1022.89 1023.28 1023.96 1024.19 1024.32 1024.27 1024.54 1025.02 1025.59 1026.25 1026.92 1027.29 1028.08 1028.52 1028.62 1028.59 1028.42 1027.94 1027.87 1027.60 1026.98 1026.85 1024.63 1022.21 1020.41 1019.24 1019.18 1019.35 1019.87 1020.13 1020.36 1020.41 1020.73
1021.18 1021.98 1022.03 1022.44 1022.58 1022.02 1022.26 1022.19 1021.72 1021.26 1021.36 1021.18 1021.58 1022.32 1023.72 1023.72 1024.04 1024.33 1024.30 1024.93 1025.74 1026.53 1026.95 1027.04 1027.95 1028.84 1028.87 1028.98 1028.76 1027.91 1028.18 1027.92 1026.82 1025.84 1024.10 1022.11 1020.67 1019.12 1018.82 1019.10 1019.64 1019.95 1020.13 1020.30 1020.69
1021.09 1022.04 1022.39 1021.96 1022.94 1022.08 1022.70 1022.05 1021.30 1021.17 1021.43 1020.98 1021.13 1022.14 1022.75 1023.34 1023.73 1024.19 1024.38 1025.27 1025.85 1026.77 1027.03 1027.29 1027.39 1029.18 1029.15 1028.85 1028.43 1028.45 1028.14 1027.97 1027.38 1026.19 1024.49 1022.92 1019.44 1018.52 1018.51 1019.05 1019.62 1020.04 1020.43 1020.57 1020.72
1020.63 1022.07 1022.60 1022.05 1023.21 1022.90 1022.31 1021.17 1020.85 1021.31 1021.67 1021.00 1020.67 1020.45 1021.80 1023.06 1023.98 1024.23 1024.60 1025.22 1025.88 1026.52 1026.96 1027.13 1027.18 1028.12 1028.51 1028.97 1028.97 1028.42 1028.00 1027.75 1027.36 1026.76 1025.68 1024.16 1020.16 1018.68 1018.85 1019.45 1020.18 1020.58 1021.00 1021.14 1021.20
1020.18 1021.86 1022.55 1022.29 1022.33 1022.73 1021.74 1021.02 1020.98 1021.20 1021.30 1021.15 1020.97 1020.47 1021.65 1022.82 1024.28 1024.27 1024.89 1025.86 1026.33 1026.67 1026.78 1026.93 1027.13 1027.66 1028.33 1029.15 1029.07 1028.48 1027.86 1027.70 1027.72 1027.10 1025.61 1024.17 1020.54 1019.87 1019.98 1020.19 1020.51 1020.89 1021.22 1021.80 1021.70
1019.50 1021.71 1022.53 1022.25 1021.74 1021.03 1021.02 1020.95 1021.06 1020.92 1020.70 1020.98 1020.92 1020.79 1022.16 1022.96 1024.12 1024.69 1025.34 1026.25 1026.70 1026.88 1027.03 1026.98 1027.02 1026.94 1026.90 1026.67 1026.81 1027.69 1027.46 1027.39 1027.36 1026.93 1025.28 1023.25 1021.06 1020.40 1020.40 1020.52 1020.64 1020.98 1021.27 1021.77 1022.11
1017.74 1019.11 1019.12 1020.72 1020.89 1020.48 1019.80 1019.80 1020.25 1020.77 1020.90 1020.89 1021.18 1020.46 1021.13 1023.18 1024.36 1024.94 1025.67 1026.51 1027.02 1027.07 1027.30 1027.28 1027.29 1027.22 1026.55 1026.56 1026.65 1026.62 1026.45 1026.66 1026.64 1025.39 1024.73 1022.63 1022.07 1019.82 1020.25 1020.63 1020.68 1020.93 1021.03 1021.59 1021.95
1017.15 1018.16 1019.19 1019.09 1018.84 1019.87 1019.22 1018.80 1018.81 1019.51 1019.83 1020.36 1020.50 1020.49 1020.82 1021.52 1022.39 1023.53 1025.02 1026.12 1026.13 1027.26 1027.38 1027.48 1027.42 1027.50 1026.94 1026.86 1026.80 1026.37 1025.64 1025.74 1025.58 1025.23 1024.18 1023.10 1021.40 1019.17 1019.07 1019.71 1020.20 1020.36 1020.63 1020.89 1021.17
1015.79 1016.67 1017.02 1017.80 1018.25 1018.30 1016.86 1017.50 1018.03 1018.62 1019.78 1019.45 1020.08 1020.97 1021.78 1021.76 1022.45 1023.69 1024.72 1025.11 1025.55 1026.33 1026.96 1027.32 1027.17 1027.53 1026.64 1026.33 1025.94 1025.00 1022.87 1023.27 1023.42 1022.99 1022.42 1022.34 1019.49 1019.02 1019.01 1019.01 1018.99 1019.20 1019.59 1019.72 1019.94
Wind_Speed
7 8 9 9 8 8 6 6 7 7 6 6 5 5 7 7 4 7 12 9 11 16 12 4 3 5 5 6 7 2 2 4 3 0 3 5 5 3 2 1 4 4 5 9 14
7 8 8 8 8 7 6 6 6 8 7 6 5 4 4 3 3 17 8 16 13 11 1 4 4 6 5 5 5 4 2 3 3 2 2 3 3 5 4 1 2 1 8 12 12
6 6 7 7 6 7 7 6 8 8 8 8 6 2 1 1 1 6 17 18 13 4 4 3 3 3 6 5 7 5 4 5 4 3 1 2 1 2 5 1 4 8 12 12 12
7 7 7 8 8 8 8 6 6 9 9 8 7 3 2 1 1 5 19 17 11 2 2 5 2 4 5 6 3 6 4 2 2 3 1 1 0 2 3 4 4 6 7 8 10
8 8 9 8 8 7 10 9 8 7 8 8 7 4 1 8 4 8 18 13 5 5 7 4 5 4 7 6 6 10 4 4 3 3 4 1 1 2 1 1 2 4 5 7 8
7 10 10 11 9 9 9 10 9 7 7 9 7 4 1 7 4 9 10 7 9 9 10 6 5 8 10 5 4 5 5 5 5 2 3 4 1 2 3 0 4 6 7 7 7
7 8 11 10 12 9 8 7 9 8 8 8 7 3 10 5 3 8 7 5 6 6 7 4 3 3 4 7 2 5 2 2 6 6 1 6 3 2 2 2 5 6 6 6 5
6 8 9 11 11 12 11 6 8 8 8 6 4 2 5 1 1 7 7 2 6 8 6 3 7 11 5 5 3 1 3 2 3 6 1 6 2 1 3 4 6 6 5 5 5
4 6 8 10 11 11 12 4 6 6 3 3 2 2 4 2 2 4 5 4 3 4 8 3 5 6 3 2 3 2 2 1 2 1 4 3 4 3 4 5 7 6 6 5 5
5 6 9 9 9 11 11 2 6 4 4 1 2 2 2 2 3 4 3 4 4 1 3 6 5 4 5 4 2 3 5 3 3 2 4 6 10 6 5 8 9 8 7 5 5
4 7 7 9 9 9 5 2 2 1 9 4 1 3 2 6 2 5 4 3 2 6 3 5 5 7 6 5 2 2 7 8 2 2 8 4 12 12 7 7 9 9 8 6 5
2 7 7 9 10 5 2 2 2 2 8 3 1 3 1 3 1 9 6 2 4 4 1 2 5 4 5 4 2 4 7 6 5 2 6 6 13 3 2 3 6 7 8 7 6
2 5 9 8 6 4 3 3 1 2 4 3 2 3 2 2 3 7 5 2 5 5 5 3 5 4 4 5 3 1 4 8 7 10 3 12 3 1 2 4 5 7 8 7 7
4 4 8 11 2 3 3 0 2 3 3 1 2 3 2 1 4 3 3 2 4 4 4 6 1 3 5 4 2 1 3 7 9 8 3 9 4 1 3 6 2 3 6 6 5
6 1 6 7 2 1 5 3 2 2 2 2 3 2 1 2 2 5 2 2 4 4 1 2 1 1 2 3 1 3 4 5 7 6 4 6 3 2 3 3 5 4 6 5 3
7 0 1 1 2 2 4 4 1 6 4 1 2 2 1 2 3 2 2 7 3 4 7 3 1 3 3 2 2 2 2 3 3 4 1 3 4 2 3 5 6 4 5 5 4
7 5 3 2 3 3 4 2 5 4 1 3 2 1 1 2 2 2 3 2 1 3 1 0 1 1 1 3 3 2 1 1 1 1 2 1 4 6 6 6 6 7 7 6 5
9 4 4 1 2 5 2 4 1 1 5 2 5 2 0 1 1 1 2 2 2 2 3 3 2 2 3 4 1 4 2 0 3 2 3 1 4 1 2 5 10 8 7 5 3
10 1 4 1 2 3 3 4 8 7 8 11 5 5 1 0 2 1 2 3 2 5 4 4 1 0 3 2 5 3 1 2 5 1 2 3 5 9 2 4 3 4 3 3 2
4 1 3 3 3 2 5 6 5 3 4 2 6 2 2 1 0 1 4 3 4 1 1 5 2 1 1 1 2 1 4 2 2 2 2 2 5 4 2 4 4 3 4 3 4
3 3 2 4 1 2 5 8 4 1 2 2 4 6 4 2 3 2 2 2 3 4 1 4 0 2 1 5 3 4 3 2 1 3 0 3 3 7 6 5 7 5 5 6 5
4 2 1 1 3 2 5 8 5 5 1 2 1 6 7 6 4 4 4 2 5 6 4 3 2 3 1 1 3 2 2 3 2 3 1 1 7 4 7 5 4 9 8 8 6
5 2 1 2 7 4 2 4 3 6 5 4 4 4 1 7 2 3 2 2 5 5 3 6 1 1 1 1 2 5 5 4 3 0 7 4 3 1 6 6 7 9 9 8 5
6 4 1 2 1 5 6 4 6 1 4 3 5 5 4 5 3 1 3 2 3 1 2 3 1 4 3 1 5 5 6 11 6 4 5 9 7 5 7 8 6 6 7 6 6
1 6 7 8 6 4 6 12 7 7 2 4 1 5 11 6 4 5 2 2 2 3 2 1 4 2 3 3 2 3 5 13 13 7 8 1 8 10 5 8 6 5 3 5 7
7 6 1 4 12 13 8 11 17 6 10 8 6 10 11 11 11 11 9 5 6 6 7 4 1 1 5 1 4 6 12 12 15 7 13 12 23 15 10 6 6 7 5 6 7
3 3 1 9 7 14 15 10 13 8 3 3 7 8 8 5 8 5 5 3 6 8 10 8 6 4 5 2 4 8 12 18 10 9 12 12 13 1 3 6 5 6 8 8 7
Wind_Direction
22 20 29 20 14 10 4 349 339 348 1 360 21 5 350 5 44 74 46 331 320 319 313 279 31 43 43 68 33 308 98 84 87 111 53 11 338 61 22 29 49 46 9 323 326
28 18 21 25 13 4 1 339 334 335 344 343 345 339 334 351 50 55 4 347 335 330 359 49 51 34 66 40 32 11 58 84 50 23 348 347 344 345 297 12 79 353 359 349 343
22 17 12 18 25 358 351 342 333 334 332 329 335 310 78 272 72 2 348 344 347 354 54 79 73 54 72 44 15 29 70 129 76 20 294 359 340 18 311 233 31 336 338 346 346
13 13 15 14 11 360 336 332 327 326 325 329 343 69 44 163 14 331 338 336 345 98 76 51 43 73 72 63 19 103 72 120 75 32 128 42 11 285 322 39 353 333 328 329 347
11 1 353 14 350 359 337 328 324 325 320 321 335 336 214 62 55 330 331 334 19 62 57 66 57 94 96 99 82 83 124 80 105 80 55 234 25 339 279 19 351 327 307 334 344
2 354 353 351 345 348 345 331 326 323 319 319 335 320 5 82 334 336 334 337 21 66 65 43 78 101 85 67 40 77 118 112 68 75 44 295 309 244 127 321 278 309 323 333 330
359 1 347 341 338 340 338 342 324 315 311 318 345 41 57 96 350 348 9 8 356 49 79 35 84 71 127 108 80 113 192 174 44 0 52 290 181 217 70 230 285 297 308 318 328
353 349 343 334 341 335 329 343 327 312 306 308 357 47 83 277 308 22 356 36 47 61 69 42 71 85 43 120 84 84 253 229 61 352 202 307 45 186 189 249 286 296 301 308 322
338 332 328 334 341 333 323 348 356 311 343 353 340 43 100 304 39 344 24 354 326 64 54 55 68 69 84 81 145 96 304 306 202 82 308 316 302 166 202 235 273 279 286 298 306
326 323 330 330 342 336 322 60 23 337 338 162 100 79 22 336 327 338 9 353 43 47 79 36 65 94 59 17 43 353 297 259 288 46 316 290 269 293 262 242 262 271 273 283 302
306 315 325 329 332 347 329 113 61 28 37 53 19 79 1 313 277 19 11 348 359 54 58 19 84 72 67 58 30 336 286 297 334 33 314 300 300 317 319 252 253 260 264 272 294
287 303 326 331 320 24 345 205 113 97 100 16 61 88 54 304 31 22 0 56 37 72 6 90 86 113 111 99 89 9 313 324 287 286 294 317 310 360 339 276 272 282 276 276 284
236 307 326 326 314 88 30 70 107 227 73 17 12 32 332 357 56 358 5 79 70 59 32 86 101 143 114 88 359 56 359 337 300 317 267 313 196 43 120 280 280 271 279 278 281
220 305 334 324 268 154 84 139 333 323 84 11 7 30 335 71 60 342 18 69 59 117 71 69 64 172 129 95 359 12 22 314 293 310 358 351 329 36 320 316 261 358 2 353 297
219 251 352 14 115 228 127 126 6 229 43 27 9 331 353 56 58 32 5 34 92 111 214 108 138 202 129 115 167 60 324 311 302 297 286 23 292 86 300 310 0 1 4 8 353
187 143 23 130 101 34 138 133 170 51 242 146 336 352 271 14 73 302 62 55 95 89 52 88 92 0 36 124 116 34 222 248 284 272 93 21 345 256 331 316 318 333 357 354 348
169 113 78 135 135 145 241 99 41 157 327 165 144 33 342 10 71 40 29 63 169 103 171 198 89 125 334 170 142 86 291 281 253 51 356 134 264 280 281 274 272 310 326 338 330
156 132 62 46 170 166 236 65 169 256 208 214 123 107 251 326 71 74 111 197 160 103 119 184 230 14 21 339 63 79 350 166 291 294 315 177 242 6 257 288 278 273 281 293 334
139 114 93 231 226 234 119 109 212 210 158 150 102 112 314 217 337 299 218 218 158 181 179 138 134 64 42 351 291 142 247 103 106 25 247 298 256 267 268 276 240 267 264 309 347
145 194 167 147 293 227 79 214 214 154 134 221 122 164 223 168 3 270 189 146 166 181 182 186 100 48 62 254 31 13 119 205 171 280 330 266 281 273 234 258 277 266 305 323 307
124 197 104 129 12 62 166 218 196 194 239 164 145 120 134 176 196 242 234 161 175 142 81 156 30 72 310 201 197 147 156 101 17 310 232 303 242 203 217 216 275 307 307 310 306
138 201 59 276 118 315 178 186 142 166 209 273 99 108 132 131 236 227 238 236 149 161 163 167 121 161 214 26 337 339 138 199 229 199 42 1 272 185 223 240 264 288 306 314 298
138 110 115 300 180 221 258 127 176 138 195 196 150 116 126 129 245 212 225 40 142 175 170 181 219 155 210 213 258 234 183 170 111 281 206 196 248 346 264 262 248 262 282 302 283
124 153 304 218 325 173 147 177 184 225 155 173 126 90 119 104 157 230 228 145 179 216 100 151 165 227 254 160 111 185 198 193 187 200 164 237 298 249 249 251 268 255 266 272 267
186 206 187 185 218 217 195 164 146 175 242 174 10 190 151 122 139 196 172 150 152 206 128 217 252 198 269 255 240 246 191 187 199 203 219 339 231 267 212 229 245 257 271 271 265
145 147 230 151 149 177 190 199 186 162 154 215 202 179 183 162 180 187 150 179 208 167 174 171 226 146 272 290 237 259 237 205 219 227 268 278 285 253 266 219 232 234 232 242 251
135 121 208 164 158 182 208 178 203 150 212 128 165 149 200 178 87 57 63 94 146 169 185 171 154 175 263 334 286 264 224 198 187 208 206 216 232 238 244 212 221 216 214 227 239